Showing default

COSMOS 2447 (GLONASS), 33466

Orbit data source: Space-Track

COSMOS 2447 (GLONASS), 33466 is a Commonwealth of Independent States-origin payload satellite in MEO that was launched on Thu, 25 Dec 2008 UTC via a PROTON-M/DM-2 launch vehicle from the Tyuratam Missile And Space Complex (TTMTR). Payloads include a variety of satellites, spacecraft, and rockets equipped with specific instruments for various scientific and technological missions. These include communications satellites like Starlink; space stations such as the ISS; scientific satellites like the Hubble; Earth observation satellites from companies like Planet Labs, Umbra, and HawkEye 360; GPS; miniature CubeSats for education and research; and military/defense satellites.

Loading next visibility...
COSMOS 2447 (GLONASS) details
Identifier
33466, 2008-067A
Orbit
MEO
Last TLE update2 days ago
Origin
Flag of CISKVR/IACG (CIS)
ManufacturerResehetnev ISS
MissionNon-operational Defense Navigation
Bus & MotorURAGAN, Unknown motor
Mass1,450 kg wet, ~1,200 kg dry
Launch date (UTC)
2008-12-25 (16 years ago)
Launch vehicle
PROTON-M/DM-2
Launch site
Tyuratam Missile And Space Complex (TTMTR)
Object type
Payload
Rocket body
Debris
Shape & HBRCyl + 1 Ant + 2 Pan, 7.8 m
Radar Cross Section8.467 m², Large (>1 m²)

Expand to show TLE details & history

TLE from 2 days ago
0 COSMOS 2447 (GLONASS)
1 33466U 08067A   24359.63382947 -.00000039  00000-0  00000-0 0  9991
2 33466  64.5053  87.9480 0007505 251.0068 109.1338  2.13107706124472
Epoch: 2024-12-24T15:12Z
Definitive object data (Epoch: 2024-12-24T15:12:42.866Z)
Latitude0.18286°
Longitude126.2235°
Altitude19,136.266 km
Speed3.952 km/s
True Right ascension05h 52m 09s
True Declination0° 10' 57"
Sunlit
Object was in daylight at TLE epoch
Visualization TLE readout
Latitude58.43294°
Longitude176.78845°
Altitude19,157.637 km
Speed3.951 km/s
Apparent Right ascension07h 48m 29s
Apparent Declination54° 46' 20"
Sunlit
Object is in daylight
Visualization observer readout
Local Sidereal Time13:49:42
Azimuth317.455° NNW
Elevation31.453°
Doppler factor1
Orbital elements
Apogee altitude19,148.207 km
Perigee altitude19,109.921 km
Semi-major axis25,507.201 km
Eccentricity0.0007505
Inclination64.5053°
RAAN87.948°
Arg. of periapsis251.0068°
True anomaly109.21502°
Mean anomaly109.1338°
Eccentric anomaly109.17441°
Mean motion0.53278 °/min
BSTARUnknown
Orbital period675.7 mins
Loading maneuver chart data...
Loading historical data...
Loading historical data...
Loading historical data...
Loading historical data...
Loading historical data...
Loading historical data...
Loading historical data...

COSMOS 2447 (GLONASS) Visibility forecast

Observer location: undefined°, undefined

Span
Click to sort rows by Start time (UTC) header in descending order
Start Az.
Max El. time (UTC)
Max El. Az.
Max El.
End time (UTC)
End Az.
258 mins2024-12-26 14:27:51.856Z317.433° NNW2024-12-26 16:24:51.856Z70.492° E44.805°2024-12-26 18:45:51.856Z171.358° S
201 mins2024-12-27 11:06:51.856Z261.592° W2024-12-27 14:27:51.856Z39.612° NE42.167°2024-12-27 14:27:51.856Z39.612° NE
|